Regional Weather Roundup
Issued by NWS Boston, MA

Current Version | Previous Version | Text Only | Print | Product List | Glossary On
Versions: 1 2 3 4 5 6 7 8 9 10 11 12 13 14 15 16 17 18 19 20 21 22 23 24 25 26 27 28 29 30 31 32 33 34 35 36 37 38 39 40 41 42 43 44 45 46 47 48 49 50
000 ASUS41 KBOX 301210 RWRBOX REGIONAL WEATHER ROUNDUP NATIONAL WEATHER SERVICE TAUNTON MA 800 AM EDT TUE MAY 30 2017 NOTE: "FAIR" INDICATES FEW OR NO CLOUDS BELOW 12,000 FEET WITH NO SIGNIFICANT WEATHER AND/OR OBSTRUCTIONS TO VISIBILITY. MAZALL-301300- EASTERN MASSACHUSETTS CITY SKY/WX TMP DP RH WIND PRES REMARKS BOSTON CLOUDY 51 49 92 SE3 30.21R 6HR MIN TEMP: 49; 6HR MAX TEMP: 51; BEVERLY CLOUDY 51 49 92 CALM 30.21R LAWRENCE CLOUDY 52 48 86 CALM 30.22R BEDFORD CLOUDY 51 46 83 CALM 30.20R BLUE HILL N/A 48 47 96 E3 30.19R NORWOOD CLOUDY 52 49 89 CALM 30.21R MARSHFIELD CLOUDY 52 50 93 VRB5 30.21R PLYMOUTH CLOUDY 51 49 92 NE3 30.21R TAUNTON CLOUDY 51 48 89 CALM 30.21R NEW BEDFORD CLOUDY 51 49 92 NE5 30.19S $$ MAZALL-301300- CAPE COD AND THE ISLANDS CITY SKY/WX TMP DP RH WIND PRES REMARKS FALMOUTH CLOUDY 52 52 100 MISG 30.22R HYANNIS CLOUDY 53 51 93 N6 30.20R CHATHAM CLOUDY 51 51 100 E5 30.22R FOG PROVINCETOWN CLOUDY 50 49 96 N5 30.22R FOG NANTUCKET CLOUDY N/A N/A N/A NE8 30.19S MARTHAS VNYRD CLOUDY 54 51 90 N7 30.20R $$ MAZALL-301300- CENTRAL AND WESTERN MASSACHUSETTS CITY SKY/WX TMP DP RH WIND PRES REMARKS WORCESTER CLOUDY 48 47 96 S7 30.19S FOG 6HR MIN TEMP: 46; 6HR MAX TEMP: 48; FITCHBURG CLOUDY 52 48 86 S6 30.20S ORANGE CLOUDY 51 50 96 SE5 30.17R SPRINGFIELD CLOUDY 53 51 92 SE3 30.16S FOG WESTFIELD CLOUDY 52 52 100 S5 30.17S FOG NORTH ADAMS CLOUDY 55 49 80 VRB6 30.13R $$ RIZALL-301300- RHODE ISLAND CITY SKY/WX TMP DP RH WIND PRES REMARKS PROVIDENCE CLOUDY 52 51 97 NE3 30.21R 6HR MIN TEMP: 49; 6HR MAX TEMP: 52; NEWPORT CLOUDY 52 51 97 CALM 30.20R BLOCK ISLAND CLOUDY 53 50 89 NE7 30.21R SMITHFIELD CLOUDY 50 48 93 CALM 30.21R WESTERLY CLOUDY 54 51 90 NE3 30.21R $$ CTZALL-301300- CONNECTICUT CITY SKY/WX TMP DP RH WIND PRES REMARKS BRADLEY INTL CLOUDY 54 51 90 S8 30.18S 6HR MIN TEMP: 52; 6HR MAX TEMP: 54; 6HR PCP: TRACE; HARTFORD CLOUDY 54 51 90 SE7 30.18S BRIDGEPORT CLOUDY 56 52 86 SE8 30.18R DANBURY CLOUDY 52 52 100 S6 30.18R FOG GROTON CLOUDY 54 50 86 E5 30.19R NEW HAVEN CLOUDY 54 52 93 SE6 30.18S CHESTER CLOUDY 52 52 100 SE3 30.19S MERIDEN CLOUDY 54 50 86 S5 30.18S WILLIMANTIC CLOUDY 55 50 83 CALM 30.20S OXFORD FOG 52 46 82 S6 30.18R VSB 1/4 $$ MEZ002-015-021-024-NHZ003-005-008-011-012-014-VTZ005-008-301300- NORTHERN NEW ENGLAND CITY SKY/WX TMP DP RH WIND PRES REMARKS PORTLAND ME FOG 49 48 97 SE3 30.21R VSB 3/4 6HR MIN TEMP: 47; 6HR MAX TEMP: 49; BANGOR ME MOSUNNY 54 42 64 S9 30.22R CONCORD NH CLOUDY 49 47 93 SE3 30.20R MANCHESTER NH CLOUDY 50 45 83 CALM 30.19R NASHUA NH CLOUDY 51 48 89 CALM 30.21R PORTSMOUTH NH CLOUDY 49 46 88 CALM 30.19S JAFFREY NH CLOUDY 50 49 96 CALM 30.18R KEENE NH CLOUDY 51 48 89 S3 30.18R BURLINGTON VT CLOUDY 59 52 77 S18G26 30.06R MT. WASHINGTON PTSUNNY 43 41 93 SW16 N/A $$ NYZ052-076-301300- EASTERN NEW YORK CITY SKY/WX TMP DP RH WIND PRES REMARKS ALBANY CLOUDY 57 51 80 S14G22 30.10R 6HR MIN TEMP: 56; 6HR MAX TEMP: 57; NEW YORK CITY CLOUDY 56 52 86 S9 30.16R 6HR MIN TEMP: 55; 6HR MAX TEMP: 58; $$ ANZALL-301300- MARINE OBSERVATIONS STATION/POSITION TIME TEMP WIND PRES VSBY WAVE AIR SEA DIR/SP/G HT/PER (UTC) (F) (DEG/KT/KT) (MB) (MI) (FT/S) BOSTON BUOY NOT AVBL BUZZARDS BAY 1100 51 30/ 6/ 7 1022.9R NANTUCKET SOUND NOT AVBL MASS BAY-STELLWA 1104 49 51 10/ 6/ 6 1021.9R 3/ 7 ISLE OF SHOALS 1100 47 10/ 3/ 3 1022.4R S OF BLOCK IS 1155 53 N/A 4/ 8 $$ ......................KEY......................... SKY/WX - SKY CONDITION/PRESENT WEATHER TMP - TEMPERATURE IN FAHRENHEIT DWPT - DEWPOINT IN FAHRENHEIT RH - RELATIVE HUMIDITY IN PERCENT WIND - DIRECTION AND SPEED IN MPH PRES - MEAN SEA LEVEL PRESSURE IN INCHES OF HG WCI - WIND CHILL INDEX VSB - VISIBILITY IN MILES HX - HEAT INDEX TC - TEMPERATURE IN CELSIUS VRB - VARIABLE WIND DIRECTION N/A - NOT AVAILABLE

USA.gov is the U.S. government's official web portal to all federal, state and local government web resources and services.